DW8622 Weather Reports


Display with metric or nautical units.
time (UTC)temp
F
wind
direction
speed
MPH
gust
MPH
rain 1hr
in
rain 24hr
in
rain mn
in
humidity
%
barometer
mb
20260831045006 62 197 6.0 15.0 0.00 0.00 0.00 88 1007.3
20260831044506 62 204 5.0 13.0 0.00 0.00 0.00 88 1007.4
20260831044006 62 207 5.0 14.0 0.00 0.00 0.00 88 1007.4
20260831043506 62 202 5.0 14.0 0.00 0.01 0.00 88 1007.4
20260831043006 62 199 4.0 12.0 0.00 0.01 0.00 88 1007.3
20260831041506 62 189 4.0 9.0 0.00 0.02 0.00 88 1007.2
20260831040506 63 194 4.0 10.0 0.00 0.02 0.00 88 1007.2
20260831040006 63 198 4.0 10.0 0.00 0.02 0.00 87 1007.2
20260831035506 63 199 4.0 11.0 0.00 0.02 0.00 87 1007.3
20260831035006 63 192 4.0 11.0 0.00 0.02 0.00 87 1007.3
20260831034506 63 190 4.0 11.0 0.00 0.02 0.00 87 1007.3
20260831033005 64 201 4.0 12.0 0.00 0.03 0.00 86 1007.4
20260831032006 64 201 5.0 14.0 0.00 0.03 0.00 86 1007.4
20260831031506 64 203 4.0 11.0 0.00 0.03 0.00 86 1007.5
20260831031006 64 207 3.0 11.0 0.00 0.04 0.00 86 1007.6
20260831030506 64 205 4.0 11.0 0.00 0.04 0.00 86 1007.6
20260831030006 64 210 5.0 12.0 0.00 0.04 0.00 86 1007.7
20260831025506 64 213 5.0 12.0 0.00 0.04 0.00 86 1007.7
20260831025006 64 207 5.0 11.0 0.00 0.04 0.00 86 1007.8
20260831024506 64 206 5.0 12.0 0.00 0.04 0.00 87 1007.7
20260831024006 64 206 4.0 12.0 0.00 0.04 0.00 87 1007.8
20260831023506 64 204 4.0 12.0 0.00 0.04 0.00 87 1007.7
20260831023006 64 210 3.0 10.0 0.00 0.04 0.00 87 1007.7
20260831022506 63 212 3.0 10.0 0.00 0.04 0.00 87 1007.6
20260831022006 63 196 2.0 7.0 0.00 0.04 0.00 88 1007.7
20260831021506 63 177 2.0 8.0 0.00 0.04 0.00 87 1007.5
20260831021007 64 183 3.0 9.0 0.00 0.04 0.00 87 1007.5
20260831020506 64 189 3.0 9.0 0.00 0.04 0.00 86 1007.5
20260831020006 64 185 3.0 8.0 0.00 0.04 0.00 86 1007.6
20260831015506 64 183 3.0 8.0 0.00 0.04 0.00 86 1007.5
20260831015006 64 182 3.0 6.0 0.00 0.04 0.00 86 1007.4
20260831014506 64 182 3.0 8.0 0.00 0.04 0.00 86 1007.5
20260831013506 64 179 2.0 7.0 0.00 0.04 0.00 86 1007.7
20260831013006 64 187 2.0 8.0 0.00 0.04 0.00 85 1007.7
20260831012506 64 190 3.0 10.0 0.00 0.04 0.00 85 1007.8
20260831012006 64 191 3.0 10.0 0.00 0.04 0.00 85 1007.8
20260831011506 64 193 3.0 9.0 0.00 0.04 0.00 85 1007.8
20260831011006 64 191 3.0 7.0 0.00 0.04 0.00 85 1007.8
20260831010506 64 194 3.0 10.0 0.00 0.04 0.00 85 1007.8
20260831010006 64 193 3.0 10.0 0.00 0.04 0.00 85 1007.8
20260831005506 64 189 2.0 11.0 0.00 0.04 0.00 85 1007.8
20260831004506 64 185 3.0 7.0 0.00 0.04 0.00 85 1007.9
20260831004006 64 192 3.0 7.0 0.00 0.04 0.00 84 1008.0
20260831003506 64 188 3.0 7.0 0.00 0.04 0.00 84 1008.0
20260831002505 64 173 2.0 6.0 0.00 0.04 0.00 85 1008.0
20260831002005 64 177 1.0 6.0 0.00 0.04 0.00 85 1008.1
20260831001505 64 170 0.0 3.0 0.00 0.04 0.00 85 1008.2
20260831001005 64 189 0.0 2.0 0.00 0.04 0.00 85 1008.2
20260831000005 64 186 0.0 3.0 0.00 0.04 0.00 85 1008.2
20260830235505 64 191 1.0 4.0 0.00 0.04 0.00 85 1008.3
20260830235005 64 192 2.0 7.0 0.00 0.04 0.00 85 1008.5
20260830234005 64 207 1.0 7.0 0.00 0.04 0.00 85 1008.5
20260830233505 64 215 2.0 7.0 0.00 0.04 0.00 84 1008.5
20260830233005 64 208 2.0 7.0 0.00 0.04 0.00 84 1008.5
20260830232505 65 209 3.0 8.0 0.00 0.04 0.00 83 1008.5
20260830232005 65 221 3.0 8.0 0.00 0.04 0.00 83 1008.4
20260830231505 65 218 3.0 11.0 0.00 0.04 0.00 82 1008.5
20260830231004 65 208 4.0 11.0 0.00 0.04 0.00 81 1008.6
20260830230505 65 207 4.0 10.0 0.00 0.04 0.00 81 1008.5
20260830230005 65 208 3.0 10.0 0.00 0.04 0.00 82 1008.5
20260830225505 65 202 3.0 9.0 0.00 0.04 0.00 83 1008.4
20260830225005 65 196 3.0 9.0 0.00 0.04 0.00 84 1008.5
20260830224505 65 188 2.0 8.0 0.00 0.04 0.00 85 1008.5
20260830224004 64 168 0.0 3.0 0.00 0.04 0.00 86 1008.5
20260830223505 64 0 0.0 0.0 0.00 0.04 0.00 86 1008.6
20260830223005 64 0 0.0 0.0 0.00 0.04 0.00 85 1008.6
20260830222505 64 0 0.0 0.0 0.00 0.04 0.00 85 1008.6
20260830222005 64 0 0.0 0.0 0.00 0.04 0.00 85 1008.6
20260830221504 65 0 0.0 0.0 0.00 0.04 0.00 85 1008.6
20260830221005 65 0 0.0 0.0 0.00 0.04 0.00 84 1008.7
20260830220006 65 0 0.0 0.0 0.00 0.04 0.00 83 1008.8
20260830215005 66 177 1.0 6.0 0.00 0.04 0.04 81 1008.8
20260830214005 67 182 2.0 8.0 0.00 0.04 0.04 80 1008.9
20260830213505 67 177 2.0 7.0 0.00 0.04 0.04 80 1009.0
20260830212505 67 190 3.0 9.0 0.00 0.04 0.04 79 1009.1
20260830212005 67 190 3.0 9.0 0.00 0.04 0.04 79 1009.2
20260830211505 67 185 1.0 8.0 0.00 0.04 0.04 79 1009.2
20260830211005 67 0 0.0 0.0 0.00 0.04 0.04 80 1009.2
20260830210504 67 0 0.0 0.0 0.00 0.04 0.04 80 1009.2
20260830205505 67 0 0.0 0.0 0.00 0.04 0.04 81 1009.3
20260830205005 67 0 0.0 0.0 0.00 0.04 0.04 81 1009.3
20260830204504 67 0 0.0 0.0 0.00 0.04 0.04 81 1009.3
20260830204005 67 0 0.0 0.0 0.00 0.04 0.04 81 1009.3
20260830203505 67 0 0.0 0.0 0.00 0.04 0.04 82 1009.3
20260830203005 67 0 0.0 0.0 0.00 0.04 0.04 82 1009.3
20260830202505 67 0 0.0 0.0 0.00 0.04 0.04 83 1009.2
20260830202004 67 0 0.0 0.0 0.00 0.04 0.04 83 1009.4
20260830200504 67 0 0.0 0.0 0.00 0.04 0.04 82 1009.4
20260830195505 67 0 0.0 0.0 0.00 0.26 0.04 82 1009.5
20260830195005 67 0 0.0 0.0 0.00 0.35 0.04 82 1009.5
20260830194504 67 0 0.0 0.0 0.00 0.38 0.04 82 1009.5
20260830193505 67 0 0.0 0.0 0.00 0.43 0.04 82 1009.6
20260830193005 67 0 0.0 0.0 0.00 0.46 0.04 83 1009.7
20260830192504 67 0 0.0 0.0 0.00 0.51 0.04 85 1009.6
20260830192004 67 0 0.0 0.0 0.00 0.59 0.04 85 1009.6
20260830191505 66 0 0.0 0.0 0.00 0.60 0.04 86 1009.6
20260830191006 67 0 0.0 0.0 0.00 0.61 0.04 87 1009.6
20260830190505 67 0 0.0 0.0 0.00 0.61 0.04 87 1009.6
20260830190004 67 0 0.0 0.0 0.00 0.61 0.04 86 1009.5
20260830185504 67 0 0.0 0.0 0.00 0.61 0.04 86 1009.6
20260830185005 67 0 0.0 0.0 0.00 0.61 0.04 85 1009.7
20260830184505 67 0 0.0 0.0 0.00 0.61 0.04 84 1009.8
20260830184005 68 0 0.0 0.0 0.00 0.61 0.04 84 1009.8
20260830183504 68 0 0.0 0.0 0.00 0.61 0.04 84 1009.7
20260830183004 68 0 0.0 0.0 0.00 0.61 0.04 83 1009.7
20260830182504 68 0 0.0 0.0 0.00 0.61 0.04 83 1009.8
20260830182004 69 0 0.0 0.0 0.00 0.61 0.04 82 1009.9
20260830181505 69 0 0.0 0.0 0.00 0.61 0.04 82 1009.9
20260830181005 69 0 0.0 0.0 0.00 0.61 0.04 81 1009.9
20260830180505 69 0 0.0 0.0 0.00 0.61 0.04 81 1009.8
20260830180004 69 0 0.0 0.0 0.00 0.61 0.04 80 1009.7
20260830175005 70 137 0.0 2.0 0.00 0.61 0.04 77 1009.9
20260830174505 70 179 0.0 4.0 0.00 0.61 0.04 77 1010.0
20260830173505 70 174 1.0 5.0 0.00 0.61 0.04 77 1010.1
20260830173004 70 0 0.0 0.0 0.00 0.61 0.04 76 1010.1
20260830172005 71 0 0.0 0.0 0.00 0.61 0.04 76 1010.2
20260830171505 71 0 0.0 0.0 0.00 0.61 0.04 77 1010.2
20260830171005 71 0 0.0 0.0 0.00 0.61 0.04 77 1010.2
20260830165504 71 198 0.0 7.0 0.00 0.61 0.04 76 1010.3
20260830165005 70 195 1.0 7.0 0.00 0.61 0.04 76 1010.3
20260830164505 71 203 1.0 8.0 0.00 0.61 0.04 76 1010.3
20260830163505 71 212 2.0 7.0 0.00 0.61 0.04 75 1010.4
20260830163005 71 211 1.0 7.0 0.00 0.61 0.04 74 1010.5
20260830162505 71 221 1.0 7.0 0.00 0.61 0.04 74 1010.4
20260830162005 71 225 2.0 10.0 0.00 0.61 0.04 74 1010.4
20260830161007 71 216 4.0 10.0 0.00 0.61 0.04 73 1010.5
20260830160507 71 224 4.0 10.0 0.00 0.61 0.04 72 1010.5
20260830160005 71 235 5.0 12.0 0.00 0.61 0.04 71 1010.5
20260830155505 72 242 4.0 12.0 0.00 0.61 0.04 70 1010.6
20260830155005 72 246 2.0 7.0 0.00 0.61 0.04 73 1010.6
20260830154505 72 241 3.0 10.0 0.00 0.61 0.04 71 1010.5
20260830153505 73 250 3.0 11.0 0.00 0.61 0.04 69 1010.6
20260830152505 74 258 7.0 17.0 0.00 0.61 0.04 68 1010.7
20260830152005 74 258 8.0 17.0 0.00 0.61 0.04 68 1010.7
20260830151505 73 257 7.0 14.0 0.00 0.61 0.04 69 1010.8
20260830151005 73 253 5.0 11.0 0.00 0.61 0.04 68 1010.9
20260830150505 73 257 5.0 12.0 0.00 0.61 0.04 70 1010.8
20260830150005 73 252 7.0 16.0 0.00 0.61 0.04 69 1010.9
20260830145005 72 245 6.0 14.0 0.00 0.61 0.04 70 1010.9
20260830143505 72 236 6.0 14.0 0.00 0.61 0.04 70 1010.9
20260830142505 73 251 8.0 16.0 0.00 0.61 0.04 68 1011.0
20260830142005 72 256 7.0 16.0 0.00 0.61 0.04 72 1010.9
20260830141006 72 239 8.0 14.0 0.00 0.61 0.04 70 1010.9
20260830140505 72 248 7.0 16.0 0.00 0.61 0.04 70 1010.9
20260830140005 73 256 7.0 16.0 0.00 0.61 0.04 70 1010.9
20260830135505 74 254 8.0 15.0 0.00 0.61 0.04 70 1010.8
20260830135005 72 255 8.0 15.0 0.00 0.62 0.04 71 1010.8
20260830134505 72 258 8.0 15.0 0.00 0.62 0.04 70 1010.9
20260830133505 73 254 8.0 16.0 0.00 0.62 0.04 68 1010.8
20260830133005 74 257 8.0 18.0 0.00 0.63 0.04 72 1010.8
20260830132505 73 251 9.0 18.0 0.00 0.63 0.04 70 1010.9
20260830132005 72 249 9.0 17.0 0.00 0.63 0.04 69 1010.8
20260830131004 72 248 8.0 17.0 0.00 0.64 0.04 73 1010.8
20260830130506 73 257 8.0 16.0 0.00 0.64 0.04 72 1010.9
20260830130005 73 260 9.0 15.0 0.00 0.65 0.04 70 1010.8
20260830125005 72 265 9.0 16.0 0.00 0.65 0.04 72 1010.8
20260830124505 71 255 10.0 18.0 0.00 0.65 0.04 73 1010.8
20260830124005 72 253 9.0 18.0 0.00 0.65 0.04 72 1010.8
20260830123505 71 257 7.0 16.0 0.00 0.65 0.04 75 1010.8
20260830123006 70 261 8.0 19.0 0.00 0.65 0.04 75 1010.8
20260830122006 71 261 9.0 18.0 0.00 0.65 0.04 75 1010.7
20260830121505 72 261 9.0 18.0 0.00 0.65 0.04 71 1010.6
20260830121004 72 258 9.0 17.0 0.00 0.65 0.04 73 1010.5
20260830120505 71 256 9.0 17.0 0.00 0.65 0.04 74 1010.5
20260830120006 71 250 8.0 15.0 0.00 0.65 0.04 76 1010.5
20260830115505 72 255 9.0 19.0 0.00 0.65 0.04 75 1010.5
20260830114505 71 253 13.0 23.0 0.00 0.65 0.04 73 1010.4
20260830114005 71 253 13.0 23.0 0.00 0.65 0.04 72 1010.3
20260830113505 72 258 10.0 22.0 0.00 0.65 0.04 72 1010.3
20260830113005 73 252 8.0 17.0 0.00 0.65 0.04 72 1010.2
20260830112505 73 249 10.0 19.0 0.00 0.65 0.04 73 1010.2
20260830112005 73 253 12.0 23.0 0.00 0.65 0.04 73 1010.1
20260830111505 72 255 11.0 23.0 0.00 0.65 0.04 73 1010.2
20260830111005 71 251 11.0 22.0 0.00 0.65 0.04 75 1010.1
20260830110505 72 249 12.0 22.0 0.00 0.65 0.04 75 1010.0
20260830110005 72 250 11.0 22.0 0.00 0.65 0.04 77 1009.9
20260830105505 72 247 10.0 19.0 0.00 0.65 0.04 78 1009.9
20260830105005 70 249 11.0 20.0 0.00 0.65 0.04 80 1009.8
20260830104505 71 253 11.0 20.0 0.00 0.65 0.04 78 1009.8
20260830104005 71 253 12.0 25.0 0.00 0.65 0.04 79 1009.8
20260830103505 70 249 13.0 25.0 0.00 0.65 0.04 79 1009.8
20260830103005 70 252 12.0 23.0 0.00 0.65 0.04 80 1009.8
20260830102505 69 254 12.0 25.0 0.00 0.65 0.04 81 1009.7
20260830102005 69 248 11.0 25.0 0.00 0.65 0.04 83 1009.6
20260830101505 69 251 10.0 22.0 0.00 0.65 0.04 83 1009.6
20260830101006 69 253 10.0 18.0 0.00 0.65 0.04 84 1009.5
20260830100505 68 249 11.0 23.0 0.00 0.65 0.04 85 1009.5
20260830100005 68 245 10.0 23.0 0.00 0.65 0.04 85 1009.4
20260830095005 68 234 8.0 17.0 0.00 0.65 0.04 86 1009.4
20260830094505 68 233 9.0 19.0 0.00 0.65 0.04 87 1009.4
20260830094005 67 234 9.0 19.0 0.00 0.65 0.04 87 1009.3
20260830093506 67 226 9.0 19.0 0.00 0.65 0.04 88 1009.4
20260830092505 68 230 8.0 17.0 0.00 0.65 0.04 89 1009.3
20260830092005 68 218 8.0 15.0 0.00 0.65 0.04 90 1009.3
20260830091505 68 215 7.0 16.0 0.00 0.65 0.04 90 1009.3
20260830091005 67 215 7.0 16.0 0.00 0.65 0.04 91 1009.2
20260830090506 66 229 8.0 16.0 0.00 0.65 0.04 92 1009.0
20260830085005 66 230 8.0 17.0 0.00 0.65 0.04 92 1009.0
20260830084505 66 226 7.0 15.0 0.00 0.65 0.04 93 1008.9
20260830083505 66 232 7.0 17.0 0.00 0.65 0.04 93 1008.8
20260830083005 66 226 6.0 14.0 0.00 0.65 0.04 94 1008.8
20260830082505 65 223 6.0 14.0 0.00 0.65 0.04 93 1008.8
20260830082005 65 226 6.0 14.0 0.00 0.65 0.04 92 1008.7
20260830081505 66 224 6.0 14.0 0.00 0.65 0.04 92 1008.6
20260830080505 66 224 7.0 16.0 0.00 0.65 0.04 91 1008.5
20260830080005 66 237 8.0 16.0 0.00 0.65 0.04 92 1008.5
20260830075505 66 239 8.0 16.0 0.00 0.65 0.04 92 1008.4
20260830075006 66 237 8.0 17.0 0.00 0.65 0.04 92 1008.3
20260830074005 66 226 8.0 16.0 0.00 0.65 0.04 92 1008.1
20260830073005 65 216 7.0 17.0 0.00 0.65 0.04 93 1008.0
20260830072505 65 221 7.0 17.0 0.00 0.65 0.04 93 1008.0
20260830072005 65 224 7.0 16.0 0.00 0.65 0.04 93 1007.9
20260830071506 65 216 7.0 15.0 0.00 0.65 0.04 94 1007.8
20260830071005 65 217 7.0 15.0 0.00 0.65 0.04 94 1007.8
20260830070504 65 220 7.0 15.0 0.00 0.65 0.04 94 1007.7
20260830065505 65 232 6.0 14.0 0.00 0.65 0.04 94 1007.6
20260830064505 64 205 7.0 14.0 0.00 0.65 0.04 94 1007.5
20260830064005 64 211 7.0 14.0 0.00 0.65 0.04 93 1007.4
20260830063505 64 217 7.0 16.0 0.00 0.65 0.04 93 1007.4
20260830063005 64 221 7.0 18.0 0.00 0.65 0.04 93 1007.3
20260830062005 64 211 7.0 17.0 0.00 0.65 0.04 93 1007.2
20260830061505 64 211 8.0 19.0 0.00 0.65 0.04 93 1007.2
20260830061005 64 210 8.0 19.0 0.00 0.65 0.04 93 1007.1
20260830060005 64 216 8.0 17.0 0.00 0.65 0.04 94 1007.1
20260830055505 64 219 7.0 15.0 0.00 0.65 0.04 94 1006.9
20260830055005 64 222 7.0 16.0 0.00 0.65 0.04 94 1006.9
20260830054005 64 219 6.0 14.0 0.00 0.65 0.04 94 1006.8
20260830053504 64 214 7.0 15.0 0.01 0.65 0.04 94 1006.8
20260830053006 64 216 8.0 15.0 0.01 0.65 0.04 94 1006.7
20260830052505 64 214 7.0 14.0 0.02 0.65 0.04 94 1006.7
20260830052005 64 208 7.0 17.0 0.02 0.65 0.04 94 1006.6
20260830051505 64 211 8.0 17.0 0.02 0.65 0.04 94 1006.5
20260830051006 64 219 8.0 16.0 0.02 0.65 0.04 94 1006.5
20260830050506 64 218 8.0 17.0 0.02 0.65 0.04 94 1006.4
20260830050005 64 217 8.0 21.0 0.02 0.65 0.04 94 1006.5